Flag for U.S.A. Weather past 2 weeks in Sandpoint, Idaho, U.S.A.

Now
28 °F

Passing clouds.


Feels Like: 25 °F
Forecast: 27 / 33 °F
Wind: 3 mph from Northeast

Location: Sandpoint Airport

Current Time: Dec 25, 2014 at 7:04:17 AM

Latest Report: Dec 25, 2014 at 6:35 AM


Visibility: 10 mi

Pressure: 29.94 "Hg

Humidity: 100%

Dew point: 28 °F

Location of SandpointLocation

Historic Weather in Sandpoint — Graph

°F

Sandpoint temperature yesterday

Maximum temperature yesterday: 34 °F (at 11:35 AM)
Minimum temperature yesterday: 30 °F (at 8:15 PM)
Average temperature yesterday: 32 °F

Past Weeks' High & Low Weather Summary

 TemperatureHumidityPressure
High48 °F (Dec 21, 2:15 PM)100% (Dec 10, 5:15 AM)30.36 "Hg (Dec 10, 5:15 AM)
Low25 °F (Dec 23, 3:15 AM)49% (Dec 22, 12:55 PM)29.46 "Hg (Dec 21, 1:15 AM)
Average35 °F95%29.92 "Hg
* Reported Dec 10 5:15 AM — Dec 25 5:55 AM, Sandpoint, Weather by CustomWeather, © 2014

Note: Actual official high and low records may vary slightly from our data, if they occured in-between our weather recording intervals... More about our weather records

Advertising

Sandpoint weather history for previous 24 hours

 ConditionsComfort  
Time TempWeatherWind HumidityBarometerVisibility
5:55 AM
Dec 25
28 °FPassing clouds.No wind100%29.92 "Hg10 mi
5:35 AM28 °FPassing clouds.No wind100%29.92 "Hg10 mi
5:15 AM28 °FPassing clouds.No wind100%29.91 "Hg10 mi
4:55 AM28 °FPartly cloudy.No wind100%29.90 "Hg10 mi
4:35 AM30 °FPassing clouds.5 mph100%29.89 "Hg10 mi
4:15 AM30 °FPartly cloudy.6 mph100%29.89 "Hg10 mi
3:55 AM30 °FPassing clouds.5 mph100%29.88 "Hg10 mi
3:35 AM32 °FOvercast.8 mph93%29.88 "Hg10 mi
3:15 AM32 °FOvercast.8 mph100%29.88 "Hg10 mi
2:55 AM32 °FOvercast.6 mph100%29.87 "Hg10 mi
2:35 AM30 °FOvercast.No wind100%29.87 "Hg10 mi
2:15 AM30 °FOvercast.No wind100%29.86 "Hg10 mi
1:55 AM30 °FPassing clouds.No wind100%29.85 "Hg10 mi
1:35 AM28 °FPassing clouds.No wind100%29.84 "Hg10 mi
1:15 AM30 °FPassing clouds.No wind100%29.83 "Hg10 mi
12:55 AM30 °FPassing clouds.No wind100%29.83 "Hg10 mi
12:15 AM32 °FPassing clouds.No wind100%29.81 "Hg10 mi
11:55 PM
Dec 24
32 °FOvercast.No wind100%29.80 "Hg10 mi
11:35 PM32 °FOvercast.3 mph100%29.79 "Hg10 mi
11:15 PM32 °FOvercast.No wind100%29.79 "Hg10 mi
10:55 PM32 °FOvercast.No wind100%29.78 "Hg10 mi
10:35 PM32 °FOvercast.3 mph100%29.78 "Hg10 mi
10:15 PM32 °FMostly cloudy.No wind100%29.77 "Hg10 mi
9:55 PM30 °FPassing clouds.No wind100%29.76 "Hg10 mi
9:35 PM30 °FIce fog.No wind100%29.74 "Hg3 mi
9:15 PM32 °FPartly cloudy.No wind100%29.73 "Hg10 mi
8:55 PM30 °FOvercast.No wind100%29.72 "Hg7 mi
8:35 PM30 °FIce fog.No wind100%29.72 "Hg2 mi
8:15 PM30 °FIce fog.No wind100%29.71 "Hg5 mi
7:35 PM32 °FIce fog.No wind100%29.70 "Hg1 mi
7:15 PM32 °FIce fog.No wind100%29.69 "Hg5 mi
6:55 PM32 °FPassing clouds.No wind100%29.69 "Hg7 mi
6:35 PM32 °FIce fog.No wind100%29.68 "Hg5 mi
6:15 PM32 °FPassing clouds.No wind100%29.67 "Hg10 mi
5:55 PM32 °FIce fog.No wind100%29.67 "Hg5 mi
5:15 PM32 °FPassing clouds.No wind100%29.67 "Hg10 mi
4:55 PM32 °FOvercast.No wind100%29.67 "Hg10 mi
4:35 PM34 °FOvercast.No wind100%29.66 "Hg10 mi
4:15 PM34 °FMostly cloudy.No wind100%29.65 "Hg10 mi
3:55 PM34 °FMostly cloudy.3 mph100%29.65 "Hg10 mi
3:15 PM34 °FMostly cloudy.No wind100%29.64 "Hg10 mi
2:55 PM34 °FMore clouds than sun.No wind100%29.63 "Hg10 mi
2:15 PM34 °FOvercast.No wind100%29.62 "Hg10 mi
1:55 PM34 °FOvercast.3 mph100%29.62 "Hg10 mi
1:35 PM34 °FOvercast.No wind100%29.62 "Hg10 mi
1:15 PM34 °FOvercast.3 mph100%29.62 "Hg10 mi
12:55 PM34 °FLow clouds.3 mph100%29.62 "Hg10 mi
12:35 PM34 °FLow clouds.No wind100%29.63 "Hg10 mi
12:15 PM34 °FLow clouds.3 mph100%29.63 "Hg10 mi
11:55 AM32 °FLow clouds.3 mph100%29.64 "Hg7 mi
11:35 AM34 °FLow clouds.No wind100%29.65 "Hg7 mi
11:15 AM32 °FLow clouds.No wind100%29.66 "Hg10 mi
10:55 AM32 °FLow clouds.No wind100%29.66 "Hg10 mi
10:35 AM32 °FIce fog.No wind100%29.67 "Hg5 mi
10:15 AM32 °FIce fog.No wind100%29.68 "Hg4 mi
9:55 AM32 °FIce fog.No wind100%29.69 "Hg4 mi
9:35 AM32 °FIce fog.No wind100%29.69 "Hg4 mi
9:15 AM32 °FMore clouds than sun.No wind100%29.69 "Hg7 mi
8:55 AM32 °FMore clouds than sun.No wind100%29.70 "Hg7 mi
8:15 AM32 °FLight snow. Cloudy.No wind100%29.71 "Hg2 mi
7:55 AM32 °FLight snow. Overcast.No wind100%29.71 "Hg5 mi
7:35 AM32 °FLight snow. Mostly cloudy.No wind100%29.72 "Hg4 mi
7:15 AM32 °FLight snow. Low clouds.No wind100%29.72 "Hg2 mi
Weather by CustomWeather, © 2014

See weather overviewHow to use our weather pages